C/2018 A6 ( Gibbs )

Japanese version
Home page
Updated on December 4, 2018

---------------------------------------------------------------------

* Profile

Discovery Date January 15, 2018
Magnitude 19.3 mag
Discoverer A. R. Gibbs (Mount Lemmon)

* Pictures

* Orbital Elements

Epoch 2019 July 16.0 TT = JDT 2458680.5
T 2019 July 14.28454 TT                                 MPCW
q   3.0179604            (2000.0)            P               Q
n   0.01638108     Peri.  264.52509     -0.16529309     +0.93044950
a  15.3546867      Node   340.38600     +0.22095483     -0.28821558
e   0.8034502      Incl.   76.95566     -0.96117488     -0.22626423
P  60.17
From 177 observations 2018 Jan. 15-June 17, mean residual 0".4.

* Finding Charts

* Magnitudes Graph

        m1 = 5.5 + 5 log d + 13.0 log r

---------------------------------------------------------------------

The orbital elements are published on M.P.E.C. 2018-S50.
The charts are made with StellaNavigator Ver.10 (AstroArts).
The magnitudes graphs are made with Comet for Windows.

---------------------------------------------------------------------

Copyright(C) Seiichi Yoshida (comet@aerith.net). All rights reserved.